Flag for United Arab Emirates Weather past 2 weeks in Ras al-Khaimah, Ras al-Khaimah, United Arab Emirates

Now
102 °F

Sunny.


Feels Like: 103 °F
Forecast: 82 / 101 °F
Wind: 5 mph from Northwest

Location: Ras Al Khaimah International Airport

Current Time: Oct 2, 2014 at 11:23:55 AM

Latest Report: Oct 2, 2014 at 11:00 AM


Visibility: 10 mi

Pressure: 29.89 "Hg

Humidity: 26%

Dew point: 61 °F

Location of Ras al-KhaimahLocation

Historic Weather in Ras al-Khaimah — Graph

°F

Ras al-Khaimah temperature yesterday

Maximum temperature yesterday: 104 °F (at 12:00 PM)
Minimum temperature yesterday: 79 °F (at 5:00 AM)
Average temperature yesterday: 90 °F

Past Weeks' High & Low Weather Summary

 TemperatureHumidityPressure
High106 °F (Sep 17, 1:00 PM)89% (Sep 20, 1:00 AM)29.89 "Hg (Sep 20, 1:00 AM)
Low75 °F (Sep 29, 6:00 AM)15% (Sep 20, 3:00 PM)29.59 "Hg (Sep 17, 2:00 PM)
Average90 °F56%29.74 "Hg
* Reported Sep 17 10:00 AM — Oct 2 10:00 AM, Ras al-Khaimah, Weather by CustomWeather, © 2014

Note: Actual official high and low records may vary slightly from our data, if they occured in-between our weather recording intervals... More about our weather records

Advertising

Ras al-Khaimah weather history for previous 24 hours

 ConditionsComfort  
Time TempWeatherWind HumidityBarometerVisibility
10:00 AM
Oct 2
100 °FSunny.2 mph27%29.89 "Hg10 mi
9:00 AM95 °FSunny.7 mph41%29.89 "Hg10 mi
8:00 AM88 °FSunny.7 mph70%29.89 "Hg10 mi
7:00 AM82 °FSunny.8 mph79%29.86 "Hg10 mi
6:00 AM79 °FClear.6 mph84%29.86 "Hg10 mi
5:00 AM79 °FClear.2 mph79%29.83 "Hg10 mi
4:00 AM81 °FClear.2 mph79%29.83 "Hg10 mi
3:00 AM81 °FClear.2 mph74%29.83 "Hg10 mi
2:00 AM82 °FClear.3 mph74%29.83 "Hg10 mi
1:00 AM84 °FClear.5 mph74%29.83 "Hg10 mi
12:00 AM84 °FClear.5 mph74%29.83 "Hg10 mi
11:00 PM
Oct 1
86 °FClear.2 mph70%29.86 "Hg10 mi
10:00 PM86 °FClear.2 mph66%29.86 "Hg10 mi
9:00 PM86 °FClear.2 mph70%29.86 "Hg10 mi
8:00 PM88 °FClear.3 mph66%29.83 "Hg10 mi
7:00 PM90 °FClear.5 mph63%29.83 "Hg10 mi
6:00 PM93 °FSunny.7 mph49%29.80 "Hg10 mi
5:00 PM97 °FSunny.12 mph39%29.80 "Hg10 mi
4:00 PM99 °FSunny.14 mph35%29.80 "Hg10 mi
3:00 PM100 °FSunny.14 mph29%29.77 "Hg10 mi
2:00 PM102 °FSunny.13 mph24%29.80 "Hg10 mi
1:00 PM102 °FSunny.13 mph20%29.83 "Hg10 mi
12:00 PM104 °FSunny.13 mph19%29.83 "Hg10 mi
11:00 AM102 °FSunny.5 mph31%29.86 "Hg10 mi
Weather by CustomWeather, © 2014

See weather overviewHow to use our weather pages